CDT,Max TemperatureF,Mean TemperatureF,Min TemperatureF,Max Dew PointF,MeanDew PointF,Min DewpointF,Max Humidity, Mean Humidity, Min Humidity, Max Sea Level PressureIn, Mean Sea Level PressureIn, Min Sea Level PressureIn, Max VisibilityMiles, Mean VisibilityMiles, Min VisibilityMiles, Max Wind SpeedMPH, Mean Wind SpeedMPH, Max Gust SpeedMPH,PrecipitationIn, CloudCover, Events, WindDirDegrees
2011-10-1,84,81,78,73,64,57,74,55,47,30.10,30.07,29.98,8,1,0,22,15,24,0.00,0,,39
2011-10-2,80,78,77,61,59,55,57,50,44,30.16,30.11,30.07,0,0,0,17,14,20,0.00,0,,45
2011-10-3,80,78,77,63,57,50,57,48,39,30.18,30.13,30.10,0,0,0,14,9,17,0.00,,,51
2011-10-4,82,80,78,66,64,61,61,57,51,30.16,30.10,30.06,0,0,0,15,11,20,0.00,,,66
2011-10-5,82,81,80,68,66,63,65,58,54,30.07,30.02,29.96,0,0,0,20,14,,0.00,,,102
2011-10-6,89,84,80,73,71,68,74,69,55,29.97,29.93,29.89,10,5,0,20,12,,0.00,2,,120
2011-10-7,84,80,77,75,74,73,89,76,70,29.98,29.94,29.91,10,9,0,24,20,33,0.00,2,,113
2011-10-8,84,82,80,75,72,70,79,70,62,29.96,29.91,29.85,10,9,8,26,22,31,0.00,2,,115
2011-10-9,84,78,71,73,71,66,88,72,66,29.88,29.85,29.80,10,9,0,26,18,36,0.00,2,,112
2011-10-10,80,79,78,73,71,66,83,76,65,29.96,29.91,29.87,10,10,9,20,9,18,0.00,5,,2
2011-10-11,82,80,78,70,68,66,74,66,61,29.91,29.86,29.82,10,10,10,14,9,12,0.00,1,,45
2011-10-12,82,81,80,73,72,68,79,73,65,29.83,29.78,29.74,10,10,10,14,11,,0.00,0,,149
2011-10-13,82,78,75,77,73,64,89,77,54,29.92,29.85,29.80,10,10,2,15,10,24,0.00,1,,60
2011-10-14,82,81,80,63,58,54,51,44,37,29.97,29.92,29.89,10,10,10,14,8,17,0.00,0,,42
2011-10-15,86,83,80,70,64,59,70,55,48,30.03,29.97,29.92,10,10,9,18,8,12,0.00,2,,69
2011-10-16,82,81,80,70,67,64,70,63,54,30.06,30.00,29.94,10,10,10,18,12,,0.00,1,,52
2011-10-17,80,79,78,72,71,66,78,75,61,29.95,29.88,29.76,10,10,8,15,9,,0.00,0,,163
2011-10-18,80,76,73,73,63,48,83,61,36,29.93,29.82,29.69,10,10,7,23,17,30,0.00,2,,305
2011-10-19,73,71,69,48,41,34,43,33,23,30.16,30.09,30.05,10,10,10,26,17,38,0.00,0,,330
2011-10-20,78,76,75,63,47,36,57,36,24,30.13,30.07,30.02,10,10,9,23,6,26,0.00,0,,150
2011-10-21,80,78,77,66,64,61,65,59,54,30.12,30.07,30.03,10,10,10,24,21,,0.00,1,,154
2011-10-22,80,79,78,64,63,61,61,57,51,30.09,30.04,29.99,10,10,10,23,19,,0.00,1,,145
2011-10-23,80,79,78,68,66,63,69,63,57,30.06,29.99,29.95,10,10,9,25,20,25,0.00,1,,157
2011-10-24,80,79,78,68,66,64,69,63,58,30.17,30.11,30.07,10,10,8,18,14,,0.00,0,,140
2011-10-25,80,79,78,68,67,64,65,64,61,30.14,30.08,30.00,10,10,10,18,16,,0.00,1,,157
2011-10-26,80,79,78,68,66,64,69,64,58,30.01,29.92,29.85,10,10,9,21,18,,0.00,0,,167
2011-10-27,82,80,78,70,68,66,74,65,61,29.86,29.80,29.76,10,10,8,26,20,30,0.00,1,,161
2011-10-28,80,71,62,70,56,50,78,69,52,30.15,30.07,29.88,10,10,9,23,16,31,0.00,7,,325
2011-10-29,68,66,64,52,48,45,64,54,49,30.29,30.22,30.12,10,10,10,16,10,25,0.00,4,,356
2011-10-30,73,70,68,55,54,50,57,52,44,30.13,30.09,30.06,10,10,9,13,8,12,0.00,1,,79
2011-10-31,75,74,73,59,56,54,61,52,47,30.20,30.14,30.11,10,10,9,12,7,17,0.00,1,,44